Regional Weather Roundup
Issued by NWS Jackson, KY

Home | Current Version | Previous Version | Text Only | Print | Product List | Glossary Off
Versions: 1 2 3 4 5 6 7 8 9 10 11 12 13 14 15 16 17 18 19 20 21 22 23 24 25 26 27 28 29 30 31 32 33 34 35 36 37 38 39 40 41 42 43 44 45 46 47 48 49 50

000
ASUS43 KJKL 290410
RWRJKL

EAST KENTUCKY HOURLY WEATHER ROUNDUP
NATIONAL WEATHER SERVICE JACKSON KY
1200 AM EDT WED JUL 29 2015

NOTE: "FAIR" INDICATES FEW OR NO CLOUDS BELOW 12,000 FEET WITH
NO SIGNIFICANT WEATHER AND/OR OBSTRUCTIONS TO VISIBILITY.

* THESE REPORTS ARE NOT UNDER NWS QUALITY CONTROL AND MAY NOT
  REPORT WEATHER SUCH AS PRECIPITATION AND FOG.

KYZ079-080-083-085-087-088-110-112-115-119-120-290500
...EASTERN KENTUCKY...

CITY           SKY/WX    TMP DP  RH WIND       PRES   REMARKS
JACKSON        CLEAR     75  73  93 W3        30.04R FOG
LONDON         MOCLDY    75  69  81 SW3       30.03R
SOMERSET*      CLEAR     72  72 100 CALM      30.05R
MONTICELLO*    CLOUDY    74  74 100 CALM      30.06R
WILLIAMSBURG*  MOCLDY    72  72 100 NW3       30.04
MIDDLESBORO*   MOCLDY    74  73  98 CALM      30.03F
HAZARD APT*    CLEAR     73  73 100 CALM      30.04R
BLACK MTN*       N/A     68  68 100 SW3         N/A
PIKEVILLE APT* CLOUDY    77  73  88 W5        30.04R
BIG SANDY*     CLEAR     76  76  98 CALM      30.02R FOG
MOREHEAD APT*  PTCLDY    75  70  83 CALM      30.04R
$$

KYZ035-036-041-042-044-050-067-078-099-290500
...CENTRAL KENTUCKY...

CITY           SKY/WX    TMP DP  RH WIND       PRES   REMARKS
MT STERLING*   PTCLDY    72  72 100 W5        30.04R FOG
FLEMING/MASON* CLEAR    N/A N/A N/A W3        30.03R
DANVILLE*      PTCLDY    70  70 100 CALM      30.04S
RICHMOND*      PTCLDY    72  68  88 CALM      30.03R
LEXINGTON      CLEAR     75  72  90 CALM      30.02R
FRANKFORT      PTCLDY    75  73  93 CALM      30.01R
$$

KYZ091>093-OHZ055-061-077-WVZ005-015-034-035-042-290500
...SOUTHERN OHIO/WEST VIRGINIA...

CITY           SKY/WX    TMP DP  RH WIND       PRES   REMARKS
COVINGTON      PTCLDY    77  73  87 CALM      30.01S
COLUMBUS       PTCLDY    79  68  69 N3        30.00R
DAYTON         PTCLDY    77  71  82 CALM      30.03R
WILMINGTON     CLEAR     74  71  91 CALM      30.02R FOG
HUNTINGTON     PTCLDY    74  71  91 SW5       29.99R
CHARLESTON     PTCLDY    75  72  90 CALM      29.99S
PINEVILLE*     PTCLDY    71  71 100 MISG      30.10R FOG
BECKLEY        PTCLDY    71  67  87 CALM      30.09S
BLUEFIELD      PTCLDY    74  67  78 CALM      30.11S
$$

VAZ002-007-008-TNZ017-027-036-066-071-290500
...SOUTHWEST VIRGINIA/EAST TENNESSEE...

CITY           SKY/WX    TMP DP  RH WIND       PRES   REMARKS
WISE*          CLEAR     72  72 100 CALM      30.11F FOG
ABINGDON*      MOCLDY    74  72  93 CALM      30.08F
BRISTOL        MOCLDY    72  70  93 CALM      30.05R
KNOXVILLE      CLOUDY    79  72  79 CALM      30.01F
OAK RIDGE      CLOUDY    76  73  91 CALM      30.02F
CROSSVILLE     MOCLDY    72  69  90 CALM      30.09R
NASHVILLE      CLOUDY    77  75  93 N7        30.03R
$$

...KEY TO REMARKS...
VSB - VISIBILITY IN MILES
WCI - WIND CHILL INDEX
HX  - HEAT INDEX

$$


USA.gov is the U.S. government's official web portal to all federal, state and local government web resources and services.